KB1GNF Weather Reports


Display with metric or nautical units.
time (UTC)temp
F
wind
direction
speed
MPH
gust
MPH
rain 1hr
in
rain 24hr
in
rain mn
in
humidity
%
barometer
mb
20260906163512 65 309 1.0 9.0 0.00 0.38 0.22 83 1016.4
20260906163029 66 333 2.0 9.0 0.00 0.38 0.22 80 1016.4
20260906162515 67 330 3.0 8.0 0.00 0.38 0.22 77 1016.5
20260906162014 67 39 4.0 8.0 0.00 0.38 0.22 78 1016.4
20260906161508 66 351 2.0 6.0 0.00 0.38 0.22 80 1016.4
20260906161004 66 66 1.0 5.0 0.00 0.38 0.22 81 1016.4
20260906160506 65 323 2.0 5.0 0.00 0.38 0.22 81 1016.5
20260906160012 65 336 2.0 5.0 0.00 0.38 0.22 81 1016.6
20260906155504 65 1 2.0 5.0 0.00 0.38 0.22 82 1016.6
20260906155008 65 1 2.0 5.0 0.00 0.38 0.22 80 1016.6
20260906154534 66 313 2.0 7.0 0.00 0.38 0.22 80 1016.6
20260906154008 66 326 3.0 7.0 0.00 0.38 0.22 80 1016.6
20260906153507 66 336 1.0 5.0 0.00 0.38 0.22 83 1016.7
20260906153030 65 290 2.0 5.0 0.00 0.38 0.22 79 1016.8
20260906152512 64 309 2.0 5.0 0.00 0.38 0.22 82 1016.7
20260906152014 64 10 2.0 6.0 0.00 0.38 0.22 81 1016.7
20260906151528 63 325 0.0 6.0 0.00 0.38 0.22 88 1016.7
20260906151017 63 341 2.0 7.0 0.00 0.38 0.22 87 1016.8
20260906150517 63 345 3.0 7.0 0.00 0.38 0.22 85 1016.9
20260906150030 64 321 1.0 4.0 0.00 0.38 0.22 86 1017.0
20260906145504 64 302 2.0 5.0 0.00 0.38 0.22 89 1016.9
20260906145006 63 301 1.0 5.0 0.00 0.38 0.22 90 1016.8
20260906144514 62 347 1.0 5.0 0.00 0.38 0.22 91 1016.7
20260906144006 62 332 2.0 5.0 0.00 0.38 0.22 92 1016.8
20260906143511 61 342 1.0 4.0 0.00 0.38 0.22 92 1016.7
20260906143022 61 336 0.0 4.0 0.00 0.38 0.22 94 1016.7
20260906142511 61 334 1.0 7.0 0.00 0.38 0.22 94 1016.6
20260906142011 61 322 2.0 7.0 0.00 0.38 0.22 92 1016.7
20260906141533 61 297 0.0 4.0 0.00 0.38 0.22 94 1016.6
20260906141012 61 330 2.0 4.0 0.00 0.38 0.22 94 1016.6
20260906140516 60 330 1.0 6.0 0.00 0.38 0.22 93 1016.6
20260906140028 61 345 2.0 6.0 0.00 0.38 0.22 93 1016.8
20260906135515 61 333 1.0 4.0 0.00 0.38 0.22 93 1016.7
20260906135016 61 340 1.0 2.0 0.00 0.38 0.22 94 1016.6
20260906134534 61 324 0.0 2.0 0.00 0.38 0.22 93 1016.6
20260906134011 61 330 0.0 3.0 0.00 0.38 0.22 93 1016.5
20260906133505 61 347 0.0 3.0 0.00 0.38 0.22 92 1016.5
20260906133018 61 339 0.0 2.0 0.00 0.38 0.22 94 1016.5
20260906132513 61 17 0.0 3.0 0.00 0.38 0.22 94 1016.5
20260906132010 60 87 0.0 3.0 0.00 0.38 0.22 94 1016.6
20260906131524 60 354 0.0 3.0 0.00 0.38 0.22 95 1016.6
20260906131011 60 40 0.0 2.0 0.00 0.38 0.22 95 1016.6
20260906130514 60 72 0.0 0.0 0.00 0.38 0.22 96 1016.6
20260906130004 60 357 0.0 1.0 0.00 0.38 0.22 96 1016.7
20260906125503 59 341 0.0 1.0 0.00 0.38 0.22 96 1016.7
20260906125005 59 341 0.0 1.0 0.00 0.38 0.22 96 1016.7
20260906124509 59 347 0.0 2.0 0.00 0.38 0.22 96 1016.7
20260906124003 59 333 0.0 2.0 0.00 0.38 0.22 96 1016.7
20260906123505 59 345 0.0 4.0 0.00 0.38 0.22 96 1016.7
20260906123014 59 352 1.0 4.0 0.00 0.38 0.22 96 1016.7
20260906122506 58 345 1.0 3.0 0.00 0.38 0.22 96 1016.7
20260906122010 58 340 0.0 0.0 0.00 0.38 0.22 96 1016.5
20260906121521 58 345 0.0 0.0 0.01 0.38 0.22 97 1016.5
20260906121014 58 355 0.0 0.0 0.01 0.38 0.22 96 1016.5
20260906120502 58 349 0.0 0.0 0.01 0.38 0.22 97 1016.5
20260906120004 58 355 0.0 0.0 0.01 0.38 0.22 97 1016.4
20260906115504 58 328 0.0 0.0 0.01 0.38 0.22 97 1016.4
20260906115002 58 327 0.0 0.0 0.01 0.38 0.22 97 1016.3
20260906114511 58 326 0.0 0.0 0.01 0.38 0.22 97 1016.0
20260906114003 58 326 0.0 0.0 0.01 0.38 0.22 97 1016.0
20260906113504 58 337 0.0 0.0 0.01 0.38 0.22 97 1016.1
20260906113010 58 350 0.0 0.0 0.02 0.38 0.22 97 1016.1
20260906112507 58 359 0.0 0.0 0.03 0.38 0.22 97 1016.1
20260906112008 58 342 0.0 0.0 0.03 0.38 0.22 97 1016.0
20260906111523 58 356 0.0 0.0 0.02 0.37 0.21 97 1016.1
20260906111010 58 3 0.0 0.0 0.03 0.37 0.21 97 1015.9
20260906110512 58 345 0.0 0.0 0.03 0.37 0.21 97 1015.9
20260906110024 58 345 0.0 0.0 0.03 0.37 0.21 97 1015.8
20260906105510 58 351 0.0 0.0 0.03 0.37 0.21 97 1015.6
20260906105004 58 351 0.0 0.0 0.03 0.37 0.21 97 1015.5
20260906104507 58 351 0.0 0.0 0.03 0.37 0.21 97 1015.4
20260906104004 58 351 0.0 0.0 0.04 0.37 0.21 97 1015.4
20260906103504 58 351 0.0 0.0 0.04 0.37 0.21 96 1015.4
20260906103010 58 351 0.0 0.0 0.04 0.36 0.20 97 1015.3
20260906102508 58 351 0.0 0.0 0.03 0.35 0.19 97 1015.3
20260906102004 58 351 0.0 0.0 0.03 0.35 0.19 96 1015.2
20260906101513 58 351 0.0 0.0 0.03 0.35 0.19 96 1015.2
20260906101008 58 346 0.0 0.0 0.02 0.34 0.18 96 1015.2
20260906100508 58 1 0.0 0.0 0.03 0.34 0.18 96 1015.1
20260906100029 58 352 0.0 0.0 0.03 0.34 0.18 96 1015.0
20260906095513 58 1 0.0 0.0 0.03 0.34 0.18 97 1014.9
20260906095013 58 353 0.0 0.0 0.04 0.34 0.18 96 1014.8
20260906094553 58 353 0.0 0.0 0.04 0.34 0.18 96 1014.7
20260906094012 58 353 0.0 0.0 0.03 0.33 0.17 96 1014.8
20260906093514 58 351 0.0 0.0 0.03 0.33 0.17 97 1014.7
20260906093014 58 348 0.0 0.0 0.02 0.32 0.16 96 1014.7
20260906092504 58 347 0.0 0.0 0.02 0.32 0.16 96 1014.8
20260906092006 58 359 0.0 0.0 0.02 0.32 0.16 96 1014.7
20260906091512 58 349 0.0 0.0 0.03 0.32 0.16 96 1014.5
20260906091004 58 349 0.0 0.0 0.03 0.33 0.16 96 1014.4
20260906090504 58 4 0.0 0.0 0.02 0.32 0.15 96 1014.5
20260906090024 58 347 0.0 0.0 0.02 0.32 0.15 96 1014.6
20260906085510 58 345 0.0 0.0 0.02 0.32 0.15 96 1014.6
20260906085010 58 352 0.0 0.0 0.01 0.31 0.14 96 1014.4
20260906084526 59 352 0.0 0.0 0.01 0.31 0.14 97 1014.5
20260906084011 59 349 0.0 0.0 0.01 0.31 0.14 97 1014.5
20260906083514 58 352 0.0 0.0 0.01 0.31 0.14 96 1014.4
20260906083043 59 354 0.0 0.0 0.01 0.31 0.14 97 1014.4
20260906082514 59 357 0.0 0.0 0.01 0.31 0.14 96 1014.3
20260906082017 59 342 0.0 0.0 0.01 0.31 0.14 96 1014.3
20260906081512 59 337 0.0 0.0 0.01 0.30 0.13 97 1014.4
20260906081004 59 336 0.0 0.0 0.01 0.30 0.13 96 1014.3
20260906080505 59 337 0.0 0.0 0.01 0.30 0.13 96 1014.2
20260906080016 59 337 0.0 0.0 0.01 0.30 0.13 96 1014.1
20260906075506 59 337 0.0 0.0 0.02 0.30 0.13 96 1014.2
20260906075007 59 337 0.0 0.0 0.02 0.30 0.13 96 1014.2
20260906074527 59 352 0.0 0.0 0.02 0.30 0.13 96 1014.3
20260906074012 59 352 0.0 0.0 0.02 0.30 0.13 96 1014.2
20260906073509 59 352 0.0 2.0 0.02 0.30 0.13 96 1014.3
20260906073028 59 350 0.0 2.0 0.02 0.30 0.13 96 1014.4
20260906072511 59 340 0.0 2.0 0.02 0.30 0.13 96 1014.3
20260906072015 59 359 0.0 0.0 0.02 0.30 0.13 96 1014.3
20260906071530 59 333 0.0 0.0 0.01 0.29 0.12 96 1014.2
20260906071016 59 349 0.0 0.0 0.01 0.29 0.12 96 1014.2
20260906070518 59 348 0.0 0.0 0.01 0.29 0.12 96 1014.2
20260906070034 59 348 0.0 0.0 0.02 0.29 0.12 96 1014.2
20260906065503 59 342 0.0 0.0 0.01 0.28 0.11 96 1014.3
20260906065007 59 241 0.0 0.0 0.02 0.28 0.11 96 1014.4
20260906064517 59 221 0.0 0.0 0.02 0.28 0.11 96 1014.4
20260906064007 59 221 0.0 0.0 0.02 0.28 0.11 96 1014.5
20260906063510 59 221 0.0 0.0 0.03 0.28 0.11 96 1014.5
20260906063024 59 219 0.0 0.0 0.03 0.28 0.11 96 1014.4
20260906062514 59 218 0.0 0.0 0.04 0.28 0.11 96 1014.4
20260906062012 59 218 0.0 0.0 0.04 0.28 0.11 96 1014.3
20260906061529 59 219 0.0 0.0 0.04 0.28 0.11 96 1014.3
20260906061014 59 219 0.0 0.0 0.04 0.28 0.11 96 1014.3
20260906060523 59 219 0.0 0.0 0.04 0.28 0.11 96 1014.3
20260906060034 59 219 0.0 0.0 0.04 0.27 0.10 96 1014.3
20260906055517 59 219 0.0 0.0 0.04 0.27 0.10 96 1014.3
20260906055014 59 218 0.0 0.0 0.03 0.26 0.09 96 1014.4
20260906054539 59 219 0.0 0.0 0.04 0.26 0.09 96 1014.3
20260906054004 59 219 0.0 0.0 0.04 0.26 0.09 96 1014.4
20260906053506 59 218 0.0 0.0 0.03 0.25 0.08 95 1014.4
20260906053020 59 218 0.0 0.0 0.04 0.25 0.08 95 1014.5
20260906052505 59 229 0.0 0.0 0.03 0.24 0.07 95 1014.4
20260906052004 60 229 0.0 0.0 0.04 0.24 0.07 95 1014.4
20260906051505 60 229 0.0 0.0 0.05 0.24 0.07 95 1014.4
20260906051003 60 229 0.0 0.0 0.06 0.24 0.07 95 1014.5
20260906050503 60 205 0.0 0.0 0.06 0.24 0.07 95 1014.5
20260906050004 60 204 0.0 0.0 0.06 0.23 0.06 95 1014.4
20260906045506 60 204 0.0 0.0 0.07 0.23 0.06 95 1014.4
20260906045003 60 203 0.0 0.0 0.07 0.23 0.06 95 1014.3
20260906044509 60 187 0.0 0.0 0.07 0.22 0.05 95 1014.3
20260906044007 61 176 0.0 0.0 0.10 0.22 0.05 95 1014.4
20260906043504 61 176 0.0 0.0 0.13 0.22 0.05 95 1014.4
20260906043017 61 176 0.0 0.0 0.12 0.21 0.04 94 1014.5
20260906042507 61 176 0.0 0.0 0.14 0.21 0.04 94 1014.4
20260906042010 61 176 0.0 0.0 0.15 0.20 0.03 94 1014.3
20260906041522 61 182 0.0 0.0 0.15 0.19 0.02 94 1014.4
20260906041010 61 182 0.0 0.0 0.16 0.18 0.01 94 1014.4
20260906040503 61 182 0.0 0.0 0.17 0.18 0.01 93 1014.4
20260906040013 61 182 0.0 0.0 0.16 0.17 0.00 93 1014.3
20260906035503 61 182 0.0 0.0 0.15 0.16 0.16 93 1014.3
20260906035004 61 182 0.0 0.0 0.15 0.16 0.16 93 1014.2
20260906034509 62 181 0.0 0.0 0.14 0.15 0.15 92 1014.1
20260906034004 62 181 0.0 1.0 0.11 0.12 0.12 92 1014.0
20260906033504 62 181 0.0 1.0 0.08 0.09 0.09 92 1013.8
20260906033012 62 233 0.0 1.0 0.08 0.09 0.09 91 1013.8
20260906032504 62 4 0.0 1.0 0.06 0.07 0.07 91 1013.8
20260906032006 62 4 0.0 1.0 0.04 0.05 0.05 90 1013.8
20260906031518 63 4 0.0 1.0 0.03 0.04 0.04 89 1013.8
20260906031008 63 158 0.0 0.0 0.01 0.02 0.02 88 1013.7
20260906030511 63 156 0.0 0.0 0.00 0.01 0.01 87 1013.7
20260906030025 63 156 0.0 0.0 0.00 0.01 0.01 86 1013.6
20260906025510 63 156 0.0 4.0 0.00 0.01 0.01 86 1013.6
20260906025003 63 170 0.0 4.0 0.00 0.01 0.01 86 1013.6
20260906024519 63 68 1.0 4.0 0.00 0.01 0.01 85 1013.6
20260906024004 63 135 0.0 3.0 0.00 0.01 0.01 85 1013.6
20260906023505 64 100 0.0 1.0 0.00 0.01 0.01 85 1013.6
20260906023018 64 98 0.0 2.0 0.00 0.01 0.01 85 1013.6
20260906022504 64 96 0.0 2.0 0.00 0.01 0.01 84 1013.6
20260906022006 64 90 0.0 2.0 0.00 0.01 0.01 84 1013.6
20260906021517 64 86 0.0 4.0 0.00 0.01 0.01 83 1013.7
20260906021006 64 96 0.0 5.0 0.00 0.01 0.01 83 1013.6
20260906020508 64 71 2.0 5.0 0.00 0.01 0.01 83 1013.6
20260906020025 65 105 0.0 4.0 0.00 0.01 0.01 83 1013.5
20260906015510 65 86 0.0 1.0 0.00 0.01 0.01 83 1013.4
20260906015011 65 84 0.0 3.0 0.00 0.01 0.01 82 1013.5
20260906014539 65 82 1.0 3.0 0.00 0.01 0.01 82 1013.4
20260906014014 65 231 0.0 2.0 0.00 0.01 0.01 82 1013.4
20260906013503 65 217 0.0 2.0 0.00 0.01 0.01 82 1013.3
20260906013020 65 39 0.0 3.0 0.00 0.01 0.01 83 1013.4
20260906012502 65 73 0.0 3.0 0.00 0.01 0.01 83 1013.2
20260906012003 65 108 1.0 3.0 0.00 0.01 0.01 82 1013.1
20260906011514 65 229 0.0 3.0 0.00 0.01 0.01 82 1013.0
20260906011006 65 186 0.0 2.0 0.00 0.01 0.01 82 1013.2
20260906010508 65 75 0.0 2.0 0.00 0.01 0.01 82 1013.2
20260906010024 65 200 0.0 2.0 0.00 0.01 0.01 82 1013.1
20260906005511 65 276 0.0 2.0 0.00 0.01 0.01 83 1013.0
20260906005011 66 60 0.0 3.0 0.00 0.01 0.01 83 1012.9
20260906004524 66 86 0.0 4.0 0.00 0.01 0.01 83 1012.9
20260906004012 66 124 0.0 6.0 0.00 0.01 0.01 83 1013.0
20260906003513 66 80 1.0 6.0 0.00 0.01 0.01 84 1012.9
20260906003030 66 96 0.0 5.0 0.00 0.01 0.01 86 1012.9
20260906002514 65 100 0.0 0.0 0.00 0.01 0.01 87 1012.8
20260906002016 65 99 0.0 1.0 0.00 0.01 0.01 87 1012.7
20260906001512 65 99 0.0 1.0 0.00 0.01 0.01 86 1012.7
20260906001006 66 91 0.0 1.0 0.00 0.01 0.01 86 1012.6
20260906000506 66 356 0.0 0.0 0.00 0.01 0.01 85 1012.3
20260906000014 66 356 0.0 0.0 0.00 0.01 0.01 85 1012.4
20260905235508 66 356 0.0 0.0 0.00 0.01 0.01 84 1012.4
20260905235008 67 356 0.0 1.0 0.00 0.01 0.01 84 1012.3
20260905234518 67 356 0.0 1.0 0.00 0.01 0.01 83 1012.2
20260905234010 67 356 0.0 1.0 0.00 0.01 0.01 83 1012.1
20260905233510 67 356 0.0 1.0 0.00 0.01 0.01 82 1012.1
20260905233026 68 356 0.0 2.0 0.00 0.01 0.01 82 1012.0
20260905232513 68 356 0.0 2.0 0.00 0.01 0.01 81 1012.0
20260905232012 68 359 0.0 1.0 0.00 0.01 0.01 81 1012.0
20260905231530 69 68 0.0 0.0 0.00 0.01 0.01 80 1012.1
20260905231014 69 68 0.0 0.0 0.00 0.01 0.01 79 1012.1
20260905230514 69 68 0.0 0.0 0.00 0.01 0.01 78 1012.1
20260905230009 69 348 0.0 0.0 0.00 0.01 0.01 78 1012.0
20260905225506 69 348 0.0 2.0 0.00 0.01 0.01 78 1011.9
20260905225007 70 348 0.0 2.0 0.00 0.01 0.01 77 1011.9
20260905224518 70 1 0.0 4.0 0.00 0.01 0.01 77 1011.8
20260905224007 70 5 0.0 4.0 0.00 0.01 0.01 76 1011.8
20260905223510 70 344 2.0 5.0 0.00 0.01 0.01 75 1011.7
20260905223023 70 347 1.0 5.0 0.00 0.01 0.01 75 1011.8
20260905222509 70 347 3.0 5.0 0.00 0.01 0.01 75 1011.7
20260905222013 71 327 3.0 5.0 0.00 0.01 0.01 74 1011.6
20260905221526 71 317 2.0 5.0 0.00 0.01 0.01 73 1011.5
20260905221014 71 326 2.0 5.0 0.00 0.01 0.01 72 1011.5
20260905220515 72 341 2.0 5.0 0.00 0.01 0.01 72 1011.4
20260905220006 72 348 2.0 9.0 0.00 0.01 0.01 72 1011.5
20260905215504 72 360 4.0 9.0 0.00 0.01 0.01 71 1011.4
20260905215003 72 324 3.0 8.0 0.00 0.01 0.01 70 1011.3
20260905214507 73 338 2.0 5.0 0.00 0.01 0.01 71 1011.2
20260905214003 73 283 2.0 5.0 0.00 0.01 0.01 71 1011.1
20260905213503 73 343 2.0 4.0 0.00 0.01 0.01 71 1011.0
20260905213006 72 340 2.0 4.0 0.00 0.01 0.01 71 1011.0
20260905212503 72 300 0.0 2.0 0.00 0.01 0.01 75 1011.0
20260905212003 72 297 0.0 0.0 0.00 0.01 0.01 76 1011.0
20260905211504 72 15 0.0 0.0 0.00 0.01 0.01 74 1010.9
20260905211003 72 99 0.0 1.0 0.00 0.01 0.01 72 1010.9
20260905210503 73 99 0.0 1.0 0.00 0.01 0.01 72 1010.9
20260905210005 73 122 0.0 2.0 0.00 0.01 0.01 71 1010.8
20260905205503 73 86 0.0 2.0 0.00 0.01 0.01 69 1010.8
20260905205005 73 338 0.0 1.0 0.00 0.01 0.01 71 1010.8
20260905204508 73 28 0.0 2.0 0.00 0.01 0.01 71 1010.8
20260905204006 73 19 0.0 5.0 0.00 0.01 0.01 71 1010.8
20260905203504 73 99 0.0 6.0 0.00 0.01 0.01 70 1010.7
20260905203012 73 84 2.0 8.0 0.00 0.01 0.01 69 1010.7
20260905202503 74 92 2.0 10.0 0.00 0.01 0.01 68 1010.7
20260905202004 75 88 2.0 10.0 0.00 0.01 0.01 66 1010.6
20260905201512 76 110 2.0 9.0 0.00 0.01 0.01 66 1010.6
20260905201002 76 49 4.0 9.0 0.00 0.01 0.01 63 1010.5
20260905200502 77 360 5.0 9.0 0.00 0.01 0.01 61 1010.3
20260905200007 77 347 2.0 11.0 0.00 0.01 0.01 62 1010.2
20260905195503 77 313 4.0 13.0 0.00 0.01 0.01 61 1010.3
20260905195006 77 342 3.0 13.0 0.00 0.01 0.01 63 1010.3
20260905194508 77 316 5.0 11.0 0.00 0.01 0.01 61 1010.3
20260905194004 77 353 5.0 11.0 0.00 0.01 0.01 61 1010.3
20260905193503 77 81 3.0 10.0 0.00 0.01 0.01 61 1010.3
20260905193012 77 359 4.0 8.0 0.00 0.01 0.01 61 1010.2
20260905192510 77 359 2.0 4.0 0.00 0.01 0.01 62 1010.2
20260905192003 76 297 2.0 5.0 0.00 0.01 0.01 65 1010.2
20260905191514 75 300 1.0 6.0 0.00 0.01 0.01 65 1010.3
20260905191008 75 306 2.0 6.0 0.00 0.01 0.01 66 1010.3
20260905190503 74 341 2.0 3.0 0.00 0.01 0.01 67 1010.4
20260905190012 74 309 1.0 3.0 0.00 0.01 0.01 66 1010.4
20260905185504 74 338 0.0 5.0 0.00 0.01 0.01 67 1010.4
20260905185003 74 340 1.0 5.0 0.00 0.01 0.01 65 1010.5
20260905184506 75 333 1.0 3.0 0.00 0.01 0.01 63 1010.4
20260905184003 75 354 2.0 4.0 0.00 0.01 0.01 64 1010.4
20260905183503 75 340 1.0 8.0 0.00 0.01 0.01 64 1010.3
20260905183008 75 345 2.0 8.0 0.00 0.01 0.01 62 1010.3
20260905182504 76 341 2.0 5.0 0.00 0.01 0.01 61 1010.3
20260905182004 76 349 3.0 5.0 0.00 0.01 0.01 58 1010.4
20260905181515 76 327 2.0 9.0 0.00 0.01 0.01 59 1010.4
20260905181004 75 346 4.0 9.0 0.00 0.01 0.01 61 1010.4
20260905180507 76 339 3.0 8.0 0.00 0.01 0.01 63 1010.4
20260905180017 76 309 4.0 8.0 0.00 0.01 0.01 64 1010.3
20260905175508 75 354 3.0 7.0 0.00 0.01 0.01 64 1010.4
20260905175008 75 351 2.0 7.0 0.00 0.01 0.01 65 1010.4
20260905174516 76 360 2.0 7.0 0.00 0.01 0.01 63 1010.5
20260905174008 77 8 2.0 6.0 0.00 0.01 0.01 60 1010.5
20260905173504 77 106 1.0 4.0 0.00 0.01 0.01 62 1010.4
20260905173006 75 260 2.0 9.0 0.00 0.01 0.01 62 1010.4
20260905172503 76 1 4.0 9.0 0.00 0.01 0.01 61 1010.5
20260905172002 76 353 2.0 7.0 0.00 0.01 0.01 60 1010.3
20260905171510 76 146 0.0 7.0 0.00 0.01 0.01 63 1010.3
20260905171004 75 345 2.0 6.0 0.00 0.01 0.01 63 1010.3
20260905170505 74 174 2.0 10.0 0.00 0.01 0.01 65 1010.3
20260905170016 74 67 2.0 10.0 0.00 0.01 0.01 63 1010.4
20260905165508 75 300 3.0 6.0 0.00 0.01 0.01 62 1010.3
20260905165011 75 176 1.0 5.0 0.00 0.01 0.01 64 1010.3
20260905164520 74 297 1.0 5.0 0.00 0.01 0.01 66 1010.4
20260905164013 74 352 3.0 9.0 0.00 0.01 0.01 65 1010.4